Simultaneous Nadir Overpasses (SNOs) Predictions

Prediction of SNOs between NOAA-20 and AQUA Satellite Orbit:

Table of predicted SNOs for the next 14.0 days since TLE Epoch: 3/27/2021
Index Date (NOAA-20) Time (NOAA-20) Lat,Lon (NOAA-20) SZA (NOAA-20 ) Date (AQUA) Time (AQUA) Lat,Lon (AQUA) SZA (AQUA ) Distance(km) Time Diff (sec)
1 03/28/2021 13:39:30 75.18,-148.41 95.30 03/28/2021 13:40:41 75.17,-148.49 95.26 2.29 71
2 03/28/2021 14:29:58 -76.02, 21.53 85.72 03/28/2021 14:29:51 -76.02, 21.60 85.73 2.10 7
3 03/31/2021 05:56:24 75.31, -32.26 94.09 03/31/2021 05:57:07 75.32, -32.22 94.04 1.22 43
4 03/31/2021 06:46:43 -76.55, 139.19 87.43 03/31/2021 06:46:09 -76.55, 139.18 87.40 0.31 34
5 04/02/2021 22:13:06 76.00, 85.69 92.21 04/02/2021 22:13:22 75.99, 85.63 92.22 1.80 16
6 04/02/2021 23:03:37 -76.67,-104.58 88.63 04/02/2021 23:02:35 -76.68,-104.49 88.60 2.54 62
7 04/05/2021 13:39:38 -75.10, 31.30 87.74 04/05/2021 13:40:43 -75.09, 31.29 87.79 0.36 65
8 04/05/2021 14:29:57 76.21,-157.81 90.92 04/05/2021 14:29:45 76.21,-157.80 90.92 0.29 12
9 04/08/2021 05:56:27 -75.41, 148.00 89.13 04/08/2021 05:57:04 -75.42, 148.05 89.18 1.55 37



Historial Predications of SNOs between NOAA-20 and AQUA
